User: anonymous   Login
Location: Veyrier
(46.1830°N, 6.2000°E)
Time: 13:24:02
(UTC+01:00)
Language:

Iridium 98 - Orbit

View from above orbital plane
View from above orbital plane
View from above satellite
View from above satellite

Ground track
Ground track

The orbit data is extracted from the following two-line orbital elements,

1 27451U 02031B   15025.51842727  .00000151  00000-0  46991-4 0  6777
2 27451 086.3943 027.4273 0002288 110.3765 046.9903 14.34216285666074
Epoch (UTC): 25 January 2015 12:26:32
Eccentricity: 0.0002288
inclination: 86.3943°
perigee height: 776 km
apogee height: 779 km
right ascension of ascending node: 27.4273°
argument of perigee: 110.3765°
revolutions per day: 14.34216285
mean anomaly at epoch: 46.9903°
orbit number at epoch: 66607

The dashed part of the orbit path shows where the satellite is in the earth's shadow,  

DLR